When you browse on this site, cookies collect data to enhance your experience and personalize the content and advertising you see.
Visit our Privacy Policy to learn more. By continuing to use the site, you agree to this use of cookies and data.
  • En España
  • Lista de países
  • Para 7 días
  • Temperatura del agua
  • El tiempo en el mapa
  • Informadores
  • user-avatar
    Iniciar sesión

    Tiempo cada hora Winchester

    Hoy, 23 Febrero, Domingo

    Tiempo Temperatura Precipitaciones Viento Presión Humedad
    00:00 +8°C° 0 mm 7 mps 760 mmHg 86%
    01:00 +7°C° 0.8 mm 8 mps 759 mmHg 88%
    02:00 +7°C° 0.8 mm 8 mps 757 mmHg 91%
    03:00 +7°C° 0.8 mm 8 mps 756 mmHg 94%
    04:00 +8°C° 0.1 mm 10 mps 756 mmHg 91%
    05:00 +9°C° 0.1 mm 11 mps 755 mmHg 89%
    06:00 +10°C° 0.1 mm 12 mps 755 mmHg 86%
    07:00 +10°C° 0.1 mm 12 mps 755 mmHg 86%
    08:00 +11°C° 0.1 mm 11 mps 755 mmHg 87%
    09:00 +11°C° 0.1 mm 11 mps 755 mmHg 87%
    10:00 +11°C° 0.2 mm 10 mps 756 mmHg 87%
    11:00 +11°C° 0.2 mm 10 mps 756 mmHg 87%
    12:00 +11°C° 0.2 mm 9 mps 757 mmHg 87%
    13:00 +10°C° 0.1 mm 8 mps 757 mmHg 85%
    14:00 +10°C° 0.1 mm 8 mps 758 mmHg 84%
    15:00 +9°C° 0.1 mm 7 mps 758 mmHg 82%
    16:00 +8°C° 0 mm 6 mps 759 mmHg 82%
    17:00 +7°C° 0 mm 5 mps 760 mmHg 82%
    18:00 +7°C° 0 mm 3 mps 761 mmHg 82%
    19:00 +7°C° 0 mm 2 mps 762 mmHg 81%
    20:00 +7°C° 0 mm 1 mps 762 mmHg 80%
    21:00 +6°C° 0 mm 0 mps 762 mmHg 79%
    22:00 +7°C° 0.1 mm 1 mps 762 mmHg 80%
    23:00 +6°C° 0.1 mm 2 mps 762 mmHg 81%

    Mañana, 24 Febrero, Lunes

    Tiempo Temperatura Precipitaciones Viento Presión Humedad
    00:00 +5°C° 0.1 mm 3 mps 761 mmHg 82%
    01:00 +5°C° 0.3 mm 4 mps 760 mmHg 87%
    02:00 +6°C° 0.3 mm 5 mps 759 mmHg 91%
    03:00 +5°C° 0.3 mm 6 mps 758 mmHg 96%
    04:00 +6°C° 0.1 mm 7 mps 757 mmHg 94%
    05:00 +7°C° 0.1 mm 8 mps 756 mmHg 92%
    06:00 +8°C° 0.1 mm 9 mps 755 mmHg 91%
    07:00 +8°C° 0 mm 10 mps 754 mmHg 90%
    08:00 +8°C° 0 mm 10 mps 753 mmHg 89%
    09:00 +8°C° 0 mm 11 mps 753 mmHg 88%
    10:00 +8°C° 0.3 mm 11 mps 752 mmHg 89%
    11:00 +8°C° 0.3 mm 11 mps 751 mmHg 89%
    12:00 +8°C° 0.3 mm 12 mps 751 mmHg 89%
    13:00 +8°C° 1.5 mm 11 mps 750 mmHg 90%
    14:00 +8°C° 1.5 mm 11 mps 749 mmHg 91%
    15:00 +8°C° 1.5 mm 11 mps 748 mmHg 92%
    16:00 +8°C° 0.4 mm 10 mps 748 mmHg 89%
    17:00 +7°C° 0.4 mm 9 mps 749 mmHg 86%
    18:00 +6°C° 0.4 mm 8 mps 749 mmHg 83%
    19:00 +5°C° 0 mm 8 mps 749 mmHg 82%
    20:00 +5°C° 0 mm 7 mps 749 mmHg 81%
    21:00 +4°C° 0 mm 7 mps 750 mmHg 81%
    22:00 +4°C° 0 mm 7 mps 750 mmHg 81%
    23:00 +3°C° 0 mm 6 mps 750 mmHg 81%

    Pasado mañana, 25 Febrero, Martes

    Tiempo Temperatura Precipitaciones Viento Presión Humedad
    00:00 +3°C° 0 mm 6 mps 750 mmHg 81%
    01:00 +3°C° 0 mm 6 mps 750 mmHg 81%
    02:00 +2°C° 0 mm 6 mps 750 mmHg 82%
    03:00 +2°C° 0 mm 6 mps 749 mmHg 82%
    04:00 +2°C° 0 mm 6 mps 749 mmHg 84%
    05:00 +2°C° 0 mm 6 mps 749 mmHg 86%
    06:00 +2°C° 0 mm 6 mps 748 mmHg 88%
    07:00 +2°C° 0 mm 7 mps 748 mmHg 85%
    08:00 +3°C° 0 mm 7 mps 748 mmHg 82%
    09:00 +2°C° 0 mm 8 mps 748 mmHg 80%
    10:00 +4°C° 0.1 mm 8 mps 747 mmHg 78%
    11:00 +4°C° 0.1 mm 8 mps 747 mmHg 76%
    12:00 +5°C° 0.1 mm 8 mps 747 mmHg 74%
    13:00 +5°C° 0.3 mm 8 mps 746 mmHg 74%
    14:00 +5°C° 0.3 mm 8 mps 745 mmHg 74%
    15:00 +5°C° 0.3 mm 7 mps 744 mmHg 73%
    16:00 +4°C° 0.7 mm 8 mps 744 mmHg 79%
    17:00 +1°C° 0.7 mm 8 mps 743 mmHg 85%
    18:00 0°C° 0.7 mm 8 mps 742 mmHg 91%
    19:00 0°C° 0.2 mm 8 mps 742 mmHg 87%
    20:00 -1°C° 0.2 mm 8 mps 742 mmHg 83%
    21:00 -1°C° 0.2 mm 7 mps 742 mmHg 79%
    22:00 -2°C° 0 mm 7 mps 742 mmHg 79%
    23:00 -2°C° 0 mm 7 mps 742 mmHg 79%

    26 Febrero, Miércoles

    Tiempo Temperatura Precipitaciones Viento Presión Humedad
    00:00 -2°C° 0 mm 7 mps 743 mmHg 79%
    01:00 -2°C° 0 mm 7 mps 743 mmHg 80%
    02:00 -2°C° 0 mm 7 mps 743 mmHg 82%
    03:00 -3°C° 0 mm 7 mps 744 mmHg 83%
    04:00 -2°C° 0 mm 8 mps 744 mmHg 81%
    05:00 -1°C° 0 mm 9 mps 745 mmHg 79%
    06:00 -1°C° 0 mm 9 mps 746 mmHg 78%
    07:00 0°C° 0 mm 9 mps 747 mmHg 75%
    08:00 0°C° 0 mm 9 mps 748 mmHg 72%
    09:00 +1°C° 0 mm 9 mps 749 mmHg 70%
    10:00 +1°C° 0 mm 9 mps 750 mmHg 68%
    11:00 +2°C° 0 mm 9 mps 751 mmHg 66%
    12:00 +3°C° 0 mm 9 mps 751 mmHg 64%
    13:00 +3°C° 0 mm 9 mps 752 mmHg 63%
    14:00 +3°C° 0 mm 9 mps 752 mmHg 62%
    15:00 +3°C° 0 mm 9 mps 752 mmHg 61%
    16:00 +2°C° 0 mm 8 mps 753 mmHg 64%
    17:00 +2°C° 0 mm 7 mps 753 mmHg 68%
    18:00 +1°C° 0 mm 5 mps 754 mmHg 71%
    19:00 0°C° 0 mm 5 mps 754 mmHg 73%
    20:00 0°C° 0 mm 4 mps 754 mmHg 76%
    21:00 +1°C° 0 mm 3 mps 755 mmHg 78%
    22:00 +1°C° 0 mm 3 mps 754 mmHg 79%
    23:00 +1°C° 0 mm 3 mps 754 mmHg 81%

    27 Febrero, Jueves

    Tiempo Temperatura Precipitaciones Viento Presión Humedad
    00:00 +1°C° 0 mm 3 mps 754 mmHg 82%
    01:00 +2°C° 0 mm 3 mps 753 mmHg 83%
    02:00 +1°C° 0 mm 4 mps 752 mmHg 83%
    03:00 +3°C° 0 mm 4 mps 751 mmHg 84%
    04:00 +2°C° 0.6 mm 5 mps 750 mmHg 87%
    05:00 +2°C° 0.6 mm 7 mps 748 mmHg 91%
    06:00 +2°C° 0.6 mm 8 mps 747 mmHg 94%
    07:00 +4°C° 1.6 mm 8 mps 746 mmHg 95%
    08:00 +5°C° 1.6 mm 7 mps 744 mmHg 96%
    09:00 +6°C° 1.6 mm 7 mps 743 mmHg 96%
    10:00 +7°C° 0.4 mm 8 mps 743 mmHg 93%
    11:00 +9°C° 0.4 mm 8 mps 743 mmHg 90%
    12:00 +10°C° 0.4 mm 9 mps 742 mmHg 87%
    13:00 +10°C° 0.1 mm 9 mps 743 mmHg 84%
    14:00 +10°C° 0.1 mm 9 mps 743 mmHg 81%
    15:00 +9°C° 0.1 mm 10 mps 743 mmHg 79%
    16:00 +8°C° 0 mm 9 mps 743 mmHg 80%
    17:00 +7°C° 0 mm 8 mps 743 mmHg 82%
    18:00 +5°C° 0 mm 7 mps 744 mmHg 84%
    19:00 +5°C° 0 mm 7 mps 744 mmHg 85%
    20:00 +4°C° 0 mm 6 mps 745 mmHg 85%
    21:00 +4°C° 0 mm 6 mps 745 mmHg 86%
    22:00 +4°C° 0 mm 6 mps 746 mmHg 86%
    23:00 +5°C° 0 mm 5 mps 746 mmHg 86%

    28 Febrero, Viernes

    Tiempo Temperatura Precipitaciones Viento Presión Humedad
    00:00 +5°C° 0 mm 5 mps 746 mmHg 86%
    01:00 +5°C° 0 mm 4 mps 746 mmHg 87%
    02:00 +4°C° 0 mm 4 mps 746 mmHg 88%
    03:00 +4°C° 0 mm 3 mps 746 mmHg 89%
    04:00 +4°C° 0.1 mm 3 mps 745 mmHg 91%
    05:00 +5°C° 0.1 mm 2 mps 745 mmHg 93%
    06:00 +6°C° 0.1 mm 1 mps 745 mmHg 95%
    07:00 +6°C° 0.9 mm 2 mps 744 mmHg 96%
    08:00 +6°C° 0.9 mm 2 mps 744 mmHg 97%
    09:00 +6°C° 0.9 mm 2 mps 744 mmHg 97%
    10:00 +7°C° 1.5 mm 3 mps 743 mmHg 97%
    11:00 +6°C° 1.5 mm 4 mps 742 mmHg 97%
    12:00 +7°C° 1.5 mm 6 mps 742 mmHg 97%
    13:00 +8°C° 1.4 mm 6 mps 741 mmHg 97%
    14:00 +8°C° 1.4 mm 6 mps 740 mmHg 97%
    15:00 +9°C° 1.4 mm 7 mps 739 mmHg 97%
    16:00 +8°C° 1.7 mm 6 mps 738 mmHg 96%
    17:00 +7°C° 1.7 mm 6 mps 737 mmHg 96%
    18:00 +7°C° 1.7 mm 5 mps 737 mmHg 96%
    19:00 +6°C° 1 mm 4 mps 736 mmHg 96%
    20:00 +5°C° 1 mm 4 mps 736 mmHg 96%
    21:00 +5°C° 1 mm 3 mps 736 mmHg 96%
    22:00 +4°C° 0.9 mm 3 mps 736 mmHg 96%
    23:00 +4°C° 0.9 mm 3 mps 735 mmHg 95%
    Mostrar más